QPF
0.00 0.00 0.00 0.00 0.00 0.00 0.00 0.00 0.00 0.00 0.00 0.00 0.00 0.00 0.00 0.00 0.00 0.00 0.00 0.00 0.00 0.00 0.00 0.00 0.00 0.00 0.00 0.00 0.00 0.00 0.00 0.00 0.00 0.00 0.00 0.01 0.01 0.01 0.01 0.01 0.01 0.01 0.01 0.01
0.00 0.00 0.00 0.00 0.00 0.00 0.00 0.00 0.00 0.00 0.00 0.00 0.00 0.00 0.00 0.00 0.00 0.00 0.00 0.00 0.00 0.00 0.00 0.00 0.00 0.00 0.00 0.00 0.00 0.00 0.00 0.00 0.00 0.00 0.00 0.00 0.00 0.01 0.01 0.01 0.01 0.01 0.01 0.01
0.00 0.00 0.00 0.00 0.00 0.00 0.00 0.00 0.00 0.00 0.00 0.00 0.00 0.00 0.00 0.00 0.00 0.00 0.00 0.00 0.00 0.00 0.00 0.00 0.00 0.00 0.00 0.00 0.00 0.00 0.00 0.00 0.00 0.00 0.00 0.00 0.01 0.01 0.01 0.01 0.01 0.01 0.01 0.02
0.00 0.00 0.00 0.00 0.00 0.00 0.00 0.00 0.00 0.00 0.00 0.00 0.00 0.00 0.00 0.00 0.00 0.00 0.00 0.00 0.00 0.00 0.00 0.00 0.00 0.00 0.00 0.00 0.00 0.00 0.00 0.00 0.00 0.00 0.00 0.00 0.01 0.01 0.00 0.01 0.01 0.01 0.01 0.02
0.00 0.00 0.00 0.00 0.00 0.00 0.00 0.00 0.00 0.00 0.00 0.00 0.00 0.00 0.00 0.00 0.00 0.00 0.00 0.00 0.00 0.00 0.00 0.00 0.00 0.00 0.00 0.00 0.00 0.00 0.00 0.00 0.00 0.00 0.00 0.00 0.00 0.00 0.00 0.00 0.00 0.01 0.01 0.02
0.00 0.00 0.00 0.00 0.00 0.00 0.00 0.00 0.00 0.00 0.00 0.00 0.00 0.00 0.00 0.00 0.00 0.00 0.00 0.00 0.00 0.00 0.00 0.00 0.00 0.00 0.00 0.00 0.00 0.00 0.00 0.00 0.00 0.00 0.00 0.00 0.00 0.00 0.00 0.00 0.00 0.00 0.01 0.01
0.00 0.00 0.00 0.00 0.00 0.00 0.00 0.00 0.00 0.00 0.00 0.00 0.00 0.00 0.00 0.00 0.00 0.00 0.00 0.00 0.00 0.00 0.00 0.00 0.00 0.00 0.00 0.00 0.00 0.00 0.00 0.00 0.00 0.00 0.00 0.00 0.00 0.00 0.00 0.00 0.00 0.00 0.00 0.01
0.00 0.00 0.00 0.00 0.00 0.00 0.00 0.00 0.00 0.00 0.00 0.00 0.00 0.00 0.00 0.00 0.00 0.00 0.00 0.00 0.00 0.00 0.00 0.00 0.00 0.00 0.00 0.00 0.00 0.00 0.00 0.00 0.00 0.00 0.00 0.00 0.00 0.00 0.00 0.00 0.00 0.00 0.00 0.00
0.00 0.00 0.00 0.00 0.00 0.00 0.00 0.00 0.00 0.00 0.00 0.00 0.00 0.00 0.00 0.00 0.00 0.00 0.00 0.00 0.00 0.00 0.00 0.00 0.00 0.00 0.00 0.00 0.00 0.00 0.00 0.00 0.00 0.00 0.00 0.00 0.00 0.00 0.00 0.00 0.00 0.00 0.00 0.00
0.00 0.00 0.00 0.00 0.00 0.00 0.00 0.00 0.00 0.00 0.00 0.00 0.00 0.00 0.00 0.00 0.00 0.00 0.00 0.00 0.00 0.00 0.00 0.00 0.00 0.00 0.00 0.00 0.00 0.00 0.00 0.00 0.00 0.00 0.00 0.00 0.00 0.00 0.00 0.00 0.00 0.00 0.00 0.00
0.00 0.00 0.00 0.00 0.00 0.00 0.00 0.00 0.00 0.00 0.00 0.00 0.00 0.00 0.00 0.00 0.00 0.00 0.00 0.00 0.00 0.00 0.00 0.00 0.00 0.00 0.00 0.00 0.00 0.00 0.00 0.00 0.00 0.00 0.00 0.00 0.00 0.00 0.00 0.00 0.00 0.00 0.00 0.00
0.00 0.00 0.00 0.00 0.00 0.00 0.00 0.00 0.00 0.00 0.00 0.00 0.00 0.00 0.00 0.00 0.00 0.00 0.00 0.00 0.00 0.00 0.00 0.00 0.00 0.00 0.00 0.00 0.00 0.00 0.00 0.00 0.00 0.00 0.00 0.00 0.00 0.00 0.00 0.00 0.00 0.00 0.00 0.00
0.00 0.00 0.00 0.00 0.00 0.00 0.00 0.00 0.00 0.00 0.00 0.00 0.00 0.00 0.00 0.00 0.00 0.00 0.00 0.00 0.00 0.00 0.00 0.00 0.00 0.00 0.00 0.00 0.00 0.00 0.00 0.00 0.00 0.00 0.00 0.00 0.00 0.00 0.00 0.00 0.00 0.00 0.00 0.00
0.00 0.00 0.00 0.00 0.00 0.00 0.00 0.00 0.00 0.00 0.00 0.00 0.00 0.00 0.00 0.00 0.00 0.00 0.00 0.00 0.00 0.00 0.00 0.00 0.00 0.00 0.00 0.00 0.00 0.00 0.00 0.00 0.00 0.00 0.00 0.00 0.00 0.00 0.00 0.00 0.00 0.00 0.00 0.00
0.00 0.00 0.00 0.00 0.00 0.00 0.00 0.00 0.00 0.00 0.00 0.00 0.00 0.00 0.00 0.00 0.00 0.00 0.00 0.00 0.00 0.00 0.00 0.00 0.00 0.00 0.00 0.00 0.00 0.00 0.00 0.00 0.00 0.00 0.00 0.00 0.00 0.00 0.00 0.00 0.00 0.00 0.00 0.00
0.02 0.01 0.01 0.00 0.00 0.00 0.00 0.00 0.00 0.00 0.00 0.00 0.00 0.00 0.00 0.00 0.00 0.00 0.00 0.00 0.00 0.00 0.00 0.00 0.00 0.00 0.00 0.00 0.00 0.00 0.00 0.00 0.00 0.00 0.00 0.00 0.00 0.00 0.00 0.00 0.00 0.00 0.00 0.00
0.03 0.02 0.01 0.01 0.00 0.01 0.00 0.00 0.00 0.00 0.00 0.00 0.00 0.00 0.00 0.00 0.00 0.00 0.00 0.00 0.00 0.00 0.00 0.00 0.00 0.00 0.00 0.00 0.00 0.00 0.00 0.00 0.00 0.00 0.00 0.00 0.00 0.00 0.00 0.00 0.00 0.00 0.00 0.00
0.07 0.06 0.05 0.04 0.03 0.04 0.01 0.00 0.00 0.00 0.00 0.00 0.00 0.00 0.00 0.00 0.00 0.00 0.00 0.00 0.00 0.00 0.00 0.00 0.00 0.00 0.00 0.00 0.00 0.00 0.00 0.00 0.00 0.00 0.00 0.00 0.00 0.00 0.00 0.00 0.00 0.00 0.00 0.00
0.04 0.07 0.10 0.09 0.06 0.02 0.00 0.00 0.00 0.00 0.00 0.00 0.00 0.00 0.00 0.00 0.00 0.00 0.00 0.00 0.00 0.00 0.00 0.00 0.00 0.00 0.00 0.00 0.00 0.00 0.00 0.00 0.00 0.00 0.00 0.00 0.00 0.00 0.00 0.00 0.00 0.00 0.00 0.00
0.05 0.06 0.11 0.11 0.07 0.02 0.00 0.00 0.00 0.00 0.00 0.00 0.00 0.00 0.00 0.00 0.00 0.00 0.00 0.00 0.00 0.00 0.00 0.00 0.00 0.00 0.00 0.00 0.00 0.00 0.00 0.00 0.00 0.00 0.00 0.00 0.00 0.00 0.00 0.00 0.00 0.00 0.00 0.00
0.08 0.12 0.13 0.10 0.06 0.01 0.00 0.00 0.00 0.00 0.00 0.00 0.00 0.00 0.00 0.00 0.00 0.00 0.00 0.00 0.00 0.00 0.00 0.00 0.00 0.00 0.00 0.00 0.00 0.00 0.00 0.00 0.00 0.00 0.00 0.00 0.00 0.00 0.00 0.00 0.00 0.00 0.00 0.00
0.03 0.05 0.07 0.06 0.05 0.02 0.00 0.00 0.00 0.00 0.00 0.00 0.00 0.00 0.00 0.00 0.00 0.00 0.00 0.00 0.00 0.00 0.00 0.00 0.00 0.00 0.00 0.00 0.00 0.00 0.00 0.00 0.00 0.00 0.00 0.00 0.00 0.00 0.00 0.00 0.00 0.00 0.00 0.00
0.00 0.01 0.01 0.01 0.01 0.00 0.00 0.00 0.00 0.00 0.00 0.00 0.00 0.00 0.00 0.00 0.00 0.00 0.00 0.00 0.00 0.00 0.00 0.00 0.00 0.00 0.00 0.00 0.00 0.00 0.00 0.00 0.00 0.00 0.00 0.00 0.00 0.00 0.00 0.00 0.00 0.00 0.00 0.00
0.00 0.00 0.00 0.00 0.00 0.00 0.00 0.00 0.00 0.00 0.00 0.00 0.00 0.00 0.00 0.00 0.00 0.00 0.00 0.00 0.00 0.00 0.00 0.00 0.00 0.00 0.00 0.00 0.00 0.00 0.00 0.00 0.00 0.00 0.00 0.00 0.00 0.00 0.00 0.00 0.00 0.00 0.00 0.00
0.00 0.00 0.00 0.00 0.00 0.00 0.00 0.00 0.00 0.00 0.00 0.00 0.00 0.00 0.00 0.00 0.00 0.00 0.00 0.00 0.00 0.00 0.00 0.00 0.00 0.00 0.00 0.00 0.00 0.00 0.00 0.00 0.00 0.00 0.00 0.00 0.00 0.00 0.00 0.00 0.00 0.00 0.00 0.00
0.00 0.00 0.00 0.00 0.00 0.00 0.00 0.00 0.00 0.00 0.00 0.00 0.00 0.00 0.00 0.00 0.00 0.00 0.00 0.00 0.00 0.00 0.00 0.00 0.00 0.00 0.00 0.00 0.00 0.00 0.00 0.00 0.00 0.00 0.00 0.00 0.00 0.00 0.00 0.00 0.00 0.00 0.00 0.00
MSLP
1015.82 1016.10 1016.38 1016.70 1017.08 1017.56 1018.12 1018.72 1019.30 1019.78 1020.09 1020.19 1020.04 1019.68 1019.14 1018.53 1017.92 1017.40 1017.02 1016.80 1016.75 1016.82 1016.97 1017.16 1017.35 1017.52 1017.69 1017.86 1018.09 1018.38 1018.75 1019.21 1019.72 1020.24 1020.75 1021.20 1021.58 1021.88 1022.12 1022.32 1022.51 1022.72 1022.97 1023.27
1015.89 1016.15 1016.41 1016.73 1017.14 1017.66 1018.26 1018.90 1019.49 1019.97 1020.25 1020.28 1020.05 1019.59 1018.97 1018.28 1017.62 1017.08 1016.71 1016.53 1016.52 1016.64 1016.83 1017.03 1017.20 1017.33 1017.42 1017.51 1017.63 1017.83 1018.13 1018.54 1019.02 1019.55 1020.08 1020.57 1021.00 1021.34 1021.61 1021.83 1022.02 1022.23 1022.46 1022.74
1015.97 1016.22 1016.48 1016.81 1017.25 1017.79 1018.42 1019.07 1019.65 1020.09 1020.30 1020.25 1019.93 1019.38 1018.69 1017.95 1017.27 1016.74 1016.41 1016.29 1016.35 1016.54 1016.79 1017.02 1017.19 1017.29 1017.32 1017.33 1017.36 1017.46 1017.67 1018.00 1018.44 1018.94 1019.46 1019.97 1020.41 1020.78 1021.07 1021.30 1021.51 1021.71 1021.93 1022.18
1016.07 1016.32 1016.59 1016.95 1017.41 1017.98 1018.62 1019.26 1019.81 1020.19 1020.32 1020.18 1019.76 1019.13 1018.37 1017.60 1016.92 1016.42 1016.14 1016.10 1016.25 1016.52 1016.84 1017.12 1017.31 1017.40 1017.39 1017.34 1017.29 1017.30 1017.43 1017.68 1018.04 1018.49 1018.98 1019.46 1019.90 1020.28 1020.58 1020.82 1021.03 1021.22 1021.42 1021.64
1016.16 1016.43 1016.73 1017.13 1017.63 1018.22 1018.86 1019.48 1019.99 1020.29 1020.34 1020.10 1019.60 1018.90 1018.10 1017.31 1016.64 1016.18 1015.97 1016.01 1016.24 1016.60 1016.98 1017.31 1017.54 1017.64 1017.62 1017.53 1017.43 1017.38 1017.43 1017.60 1017.89 1018.27 1018.70 1019.14 1019.55 1019.91 1020.20 1020.44 1020.65 1020.83 1021.01 1021.20
1016.19 1016.49 1016.85 1017.30 1017.84 1018.46 1019.11 1019.71 1020.16 1020.40 1020.37 1020.06 1019.49 1018.75 1017.92 1017.14 1016.50 1016.09 1015.95 1016.05 1016.36 1016.78 1017.22 1017.61 1017.87 1017.99 1017.98 1017.89 1017.76 1017.67 1017.66 1017.77 1017.99 1018.30 1018.67 1019.05 1019.42 1019.74 1020.02 1020.24 1020.43 1020.60 1020.76 1020.91
1016.09 1016.45 1016.88 1017.39 1017.99 1018.64 1019.29 1019.87 1020.28 1020.47 1020.38 1020.02 1019.42 1018.66 1017.85 1017.10 1016.51 1016.17 1016.08 1016.25 1016.61 1017.08 1017.57 1017.99 1018.29 1018.44 1018.45 1018.37 1018.25 1018.14 1018.11 1018.17 1018.34 1018.59 1018.89 1019.22 1019.53 1019.81 1020.05 1020.25 1020.42 1020.57 1020.70 1020.82
1015.82 1016.25 1016.76 1017.34 1017.99 1018.67 1019.33 1019.89 1020.27 1020.41 1020.30 1019.92 1019.32 1018.60 1017.84 1017.15 1016.65 1016.37 1016.36 1016.58 1016.99 1017.50 1018.01 1018.46 1018.79 1018.97 1019.01 1018.95 1018.85 1018.76 1018.72 1018.76 1018.89 1019.09 1019.35 1019.62 1019.88 1020.12 1020.32 1020.49 1020.63 1020.75 1020.85 1020.93
1015.37 1015.89 1016.47 1017.11 1017.81 1018.51 1019.16 1019.69 1020.04 1020.16 1020.03 1019.66 1019.11 1018.46 1017.80 1017.22 1016.83 1016.66 1016.73 1017.02 1017.47 1018.00 1018.54 1019.00 1019.34 1019.54 1019.62 1019.60 1019.52 1019.45 1019.43 1019.48 1019.59 1019.77 1019.99 1020.22 1020.44 1020.64 1020.80 1020.93 1021.03 1021.11 1021.18 1021.22
1014.81 1015.39 1016.03 1016.72 1017.43 1018.12 1018.75 1019.24 1019.55 1019.65 1019.52 1019.19 1018.71 1018.16 1017.63 1017.21 1016.96 1016.92 1017.10 1017.47 1017.98 1018.55 1019.10 1019.57 1019.93 1020.15 1020.25 1020.26 1020.23 1020.19 1020.20 1020.26 1020.38 1020.55 1020.75 1020.95 1021.14 1021.30 1021.42 1021.51 1021.58 1021.62 1021.64 1021.64
1014.21 1014.84 1015.51 1016.21 1016.90 1017.56 1018.13 1018.55 1018.81 1018.86 1018.74 1018.45 1018.06 1017.64 1017.27 1017.02 1016.94 1017.07 1017.38 1017.86 1018.44 1019.05 1019.63 1020.13 1020.50 1020.74 1020.86 1020.91 1020.92 1020.92 1020.96 1021.05 1021.19 1021.36 1021.55 1021.74 1021.91 1022.04 1022.13 1022.18 1022.20 1022.20 1022.17 1022.12
1013.70 1014.34 1015.01 1015.68 1016.32 1016.90 1017.37 1017.71 1017.88 1017.88 1017.74 1017.49 1017.19 1016.90 1016.69 1016.62 1016.73 1017.03 1017.50 1018.10 1018.77 1019.45 1020.08 1020.60 1021.00 1021.27 1021.43 1021.51 1021.55 1021.60 1021.67 1021.79 1021.95 1022.14 1022.34 1022.52 1022.67 1022.78 1022.84 1022.85 1022.83 1022.77 1022.70 1022.59
1013.36 1013.98 1014.61 1015.22 1015.77 1016.24 1016.59 1016.81 1016.87 1016.80 1016.63 1016.39 1016.16 1015.98 1015.92 1016.03 1016.32 1016.79 1017.41 1018.15 1018.93 1019.69 1020.38 1020.95 1021.39 1021.70 1021.90 1022.02 1022.11 1022.19 1022.30 1022.45 1022.64 1022.85 1023.05 1023.24 1023.38 1023.47 1023.50 1023.48 1023.41 1023.31 1023.17 1023.02
1013.23 1013.80 1014.36 1014.87 1015.31 1015.65 1015.86 1015.94 1015.89 1015.73 1015.51 1015.28 1015.08 1014.99 1015.05 1015.30 1015.74 1016.37 1017.13 1017.99 1018.88 1019.74 1020.50 1021.14 1021.64 1022.00 1022.25 1022.43 1022.56 1022.69 1022.84 1023.02 1023.23 1023.45 1023.67 1023.86 1023.99 1024.07 1024.07 1024.02 1023.91 1023.76 1023.57 1023.37
1013.28 1013.77 1014.23 1014.63 1014.94 1015.14 1015.22 1015.17 1015.01 1014.77 1014.49 1014.25 1014.08 1014.04 1014.18 1014.54 1015.09 1015.83 1016.71 1017.68 1018.66 1019.60 1020.45 1021.16 1021.73 1022.16 1022.48 1022.72 1022.91 1023.08 1023.28 1023.49 1023.72 1023.96 1024.19 1024.38 1024.51 1024.57 1024.55 1024.46 1024.31 1024.12 1023.89 1023.64
1013.41 1013.80 1014.15 1014.43 1014.62 1014.70 1014.66 1014.51 1014.26 1013.96 1013.65 1013.38 1013.23 1013.23 1013.42 1013.84 1014.46 1015.28 1016.23 1017.27 1018.32 1019.33 1020.25 1021.04 1021.69 1022.20 1022.59 1022.90 1023.16 1023.40 1023.63 1023.88 1024.14 1024.39 1024.63 1024.81 1024.93 1024.97 1024.93 1024.81 1024.63 1024.39 1024.12 1023.83
1013.51 1013.78 1014.01 1014.18 1014.27 1014.26 1014.14 1013.93 1013.64 1013.30 1012.98 1012.73 1012.59 1012.61 1012.84 1013.29 1013.95 1014.79 1015.78 1016.85 1017.95 1019.01 1019.99 1020.85 1021.57 1022.16 1022.64 1023.03 1023.36 1023.65 1023.94 1024.23 1024.51 1024.77 1025.00 1025.18 1025.29 1025.30 1025.24 1025.08 1024.86 1024.59 1024.27 1023.94
1013.46 1013.61 1013.73 1013.81 1013.82 1013.75 1013.60 1013.37 1013.09 1012.78 1012.49 1012.27 1012.17 1012.23 1012.48 1012.95 1013.61 1014.46 1015.45 1016.53 1017.64 1018.73 1019.75 1020.66 1021.45 1022.12 1022.68 1023.15 1023.55 1023.91 1024.25 1024.56 1024.86 1025.13 1025.35 1025.51 1025.59 1025.57 1025.47 1025.28 1025.01 1024.69 1024.34 1023.97
1013.21 1013.25 1013.27 1013.27 1013.24 1013.15 1013.01 1012.81 1012.58 1012.34 1012.13 1011.98 1011.95 1012.06 1012.35 1012.83 1013.50 1014.34 1015.32 1016.38 1017.49 1018.58 1019.62 1020.57 1021.42 1022.16 1022.79 1023.33 1023.80 1024.22 1024.59 1024.93 1025.24 1025.50 1025.70 1025.82 1025.86 1025.80 1025.64 1025.40 1025.09 1024.72 1024.32 1023.90
1012.80 1012.75 1012.70 1012.64 1012.58 1012.50 1012.39 1012.26 1012.12 1011.98 1011.87 1011.83 1011.89 1012.08 1012.42 1012.94 1013.62 1014.46 1015.42 1016.47 1017.56 1018.65 1019.70 1020.68 1021.56 1022.35 1023.04 1023.64 1024.16 1024.61 1025.02 1025.37 1025.66 1025.89 1026.05 1026.13 1026.11 1025.98 1025.76 1025.45 1025.08 1024.65 1024.19 1023.73
1012.35 1012.23 1012.12 1012.03 1011.96 1011.90 1011.85 1011.79 1011.75 1011.72 1011.74 1011.81 1011.98 1012.26 1012.68 1013.25 1013.97 1014.82 1015.78 1016.81 1017.89 1018.98 1020.03 1021.02 1021.93 1022.74 1023.47 1024.10 1024.65 1025.13 1025.53 1025.87 1026.14 1026.33 1026.43 1026.43 1026.33 1026.13 1025.83 1025.44 1024.98 1024.48 1023.96 1023.44
1011.98 1011.82 1011.69 1011.59 1011.52 1011.49 1011.48 1011.50 1011.54 1011.62 1011.75 1011.95 1012.23 1012.61 1013.12 1013.76 1014.52 1015.40 1016.38 1017.42 1018.50 1019.57 1020.62 1021.61 1022.53 1023.36 1024.09 1024.73 1025.28 1025.75 1026.14 1026.44 1026.66 1026.78 1026.81 1026.73 1026.53 1026.23 1025.83 1025.35 1024.81 1024.23 1023.63 1023.05
1011.81 1011.65 1011.51 1011.42 1011.37 1011.36 1011.39 1011.46 1011.58 1011.74 1011.97 1012.27 1012.65 1013.14 1013.73 1014.45 1015.27 1016.20 1017.20 1018.26 1019.34 1020.42 1021.46 1022.44 1023.34 1024.16 1024.88 1025.50 1026.03 1026.46 1026.80 1027.05 1027.20 1027.24 1027.17 1026.99 1026.70 1026.29 1025.79 1025.21 1024.57 1023.90 1023.23 1022.59
1011.87 1011.74 1011.64 1011.57 1011.54 1011.56 1011.62 1011.73 1011.90 1012.12 1012.41 1012.79 1013.26 1013.83 1014.51 1015.30 1016.19 1017.17 1018.21 1019.29 1020.38 1021.45 1022.48 1023.43 1024.31 1025.09 1025.77 1026.35 1026.83 1027.21 1027.48 1027.66 1027.72 1027.67 1027.51 1027.22 1026.82 1026.30 1025.69 1025.01 1024.28 1023.53 1022.79 1022.09
1012.09 1012.03 1011.98 1011.96 1011.98 1012.03 1012.12 1012.26 1012.46 1012.73 1013.08 1013.51 1014.05 1014.69 1015.44 1016.30 1017.25 1018.27 1019.35 1020.44 1021.53 1022.59 1023.59 1024.51 1025.33 1026.06 1026.68 1027.20 1027.61 1027.92 1028.12 1028.21 1028.18 1028.04 1027.78 1027.39 1026.88 1026.26 1025.56 1024.78 1023.97 1023.14 1022.34 1021.60
1012.33 1012.35 1012.38 1012.43 1012.51 1012.61 1012.75 1012.94 1013.18 1013.49 1013.88 1014.37 1014.96 1015.67 1016.48 1017.39 1018.39 1019.45 1020.54 1021.64 1022.72 1023.75 1024.70 1025.56 1026.33 1026.98 1027.53 1027.97 1028.30 1028.52 1028.64 1028.64 1028.53 1028.30 1027.95 1027.47 1026.88 1026.17 1025.38 1024.53 1023.65 1022.77 1021.93 1021.16
Thickness
5632 5639 5644 5654 5660 5664 5662 5661 5661 5660 5657 5661 5669 5679 5690 5696 5695 5701 5707 5710 5712 5714 5716 5716 5715 5715 5714 5712 5711 5710 5707 5703 5699 5695 5691 5688 5685 5682 5679 5676 5672 5669 5666 5662
5624 5633 5642 5640 5641 5645 5649 5651 5652 5646 5646 5653 5660 5671 5686 5691 5696 5703 5707 5710 5711 5712 5712 5711 5712 5712 5711 5712 5711 5709 5707 5704 5700 5697 5694 5691 5687 5684 5680 5676 5672 5668 5665 5662
5629 5630 5628 5631 5632 5636 5639 5647 5647 5644 5638 5642 5652 5671 5682 5690 5689 5693 5697 5700 5703 5703 5706 5708 5708 5708 5708 5707 5707 5706 5705 5703 5699 5695 5691 5688 5684 5682 5678 5675 5672 5668 5663 5659
5616 5612 5620 5626 5629 5637 5633 5637 5639 5636 5642 5644 5642 5661 5680 5683 5685 5691 5694 5696 5698 5698 5698 5699 5700 5701 5702 5702 5701 5701 5700 5698 5695 5692 5688 5685 5682 5679 5677 5674 5670 5666 5661 5657
5610 5606 5614 5620 5626 5632 5627 5624 5627 5629 5633 5633 5636 5643 5673 5672 5681 5691 5691 5689 5689 5688 5689 5689 5690 5691 5692 5693 5694 5694 5693 5691 5689 5687 5684 5680 5677 5675 5672 5668 5664 5660 5657 5652
5599 5602 5611 5616 5612 5618 5611 5614 5612 5615 5622 5620 5634 5636 5660 5676 5684 5685 5682 5681 5679 5678 5678 5679 5679 5680 5682 5683 5684 5685 5684 5682 5681 5679 5676 5673 5670 5667 5663 5659 5656 5652 5649 5646
5587 5592 5598 5605 5602 5599 5614 5615 5602 5599 5601 5618 5616 5626 5658 5674 5673 5673 5673 5672 5669 5668 5670 5671 5671 5671 5671 5672 5673 5674 5674 5671 5670 5668 5666 5664 5661 5658 5654 5651 5647 5644 5640 5637
5593 5591 5596 5602 5610 5610 5613 5624 5610 5600 5600 5613 5596 5618 5654 5659 5659 5659 5660 5660 5658 5658 5659 5658 5658 5659 5659 5659 5661 5662 5661 5659 5657 5655 5653 5650 5648 5646 5643 5639 5636 5633 5630 5626
5602 5596 5589 5593 5600 5610 5603 5610 5611 5600 5583 5594 5611 5624 5639 5649 5650 5651 5651 5651 5649 5648 5646 5646 5645 5646 5646 5646 5646 5647 5646 5645 5643 5641 5639 5636 5634 5631 5628 5625 5622 5619 5616 5612
5602 5584 5577 5581 5589 5589 5605 5603 5594 5594 5585 5596 5612 5619 5645 5646 5649 5646 5644 5643 5639 5636 5634 5633 5633 5631 5631 5631 5631 5631 5631 5629 5627 5626 5624 5621 5618 5615 5612 5610 5607 5604 5601 5598
5590 5579 5562 5570 5585 5592 5587 5590 5601 5602 5600 5599 5602 5631 5646 5649 5647 5643 5638 5635 5630 5626 5623 5621 5618 5617 5616 5616 5616 5616 5614 5613 5612 5610 5607 5605 5602 5599 5596 5594 5591 5588 5586 5583
5578 5573 5561 5568 5570 5579 5589 5597 5597 5596 5586 5598 5607 5627 5629 5631 5634 5632 5627 5621 5615 5611 5609 5606 5604 5603 5602 5601 5600 5599 5598 5596 5595 5593 5591 5588 5585 5583 5580 5578 5574 5572 5570 5568
5570 5562 5548 5550 5555 5560 5571 5580 5590 5594 5586 5581 5593 5618 5615 5616 5618 5616 5613 5606 5600 5596 5594 5591 5590 5588 5587 5585 5584 5582 5581 5579 5577 5576 5574 5571 5569 5566 5564 5561 5558 5556 5554 5552
5563 5558 5563 5571 5585 5582 5569 5572 5577 5584 5583 5587 5603 5620 5609 5608 5608 5604 5599 5594 5589 5584 5580 5578 5575 5573 5570 5568 5567 5566 5563 5561 5561 5560 5558 5554 5551 5549 5547 5544 5542 5540 5539 5537
5550 5550 5555 5563 5564 5569 5575 5575 5573 5582 5597 5597 5611 5610 5613 5607 5604 5599 5592 5583 5576 5571 5568 5565 5561 5558 5555 5552 5550 5548 5546 5544 5543 5543 5540 5536 5534 5532 5530 5528 5526 5524 5523 5521
5538 5538 5538 5534 5541 5549 5556 5568 5574 5581 5590 5595 5598 5602 5608 5599 5592 5585 5578 5572 5568 5563 5557 5551 5546 5542 5539 5536 5534 5532 5530 5527 5526 5524 5520 5517 5515 5513 5511 5510 5508 5507 5506 5505
5526 5523 5527 5528 5521 5527 5538 5564 5569 5573 5581 5585 5589 5602 5583 5581 5578 5576 5570 5565 5560 5553 5545 5537 5533 5528 5523 5520 5517 5516 5512 5509 5506 5504 5501 5498 5496 5495 5493 5492 5491 5490 5490 5488
5513 5510 5513 5508 5505 5519 5560 5560 5566 5567 5573 5575 5579 5581 5579 5579 5574 5566 5563 5557 5548 5540 5532 5524 5518 5513 5507 5503 5500 5497 5493 5491 5488 5485 5482 5480 5478 5477 5475 5474 5474 5473 5472 5471
5506 5502 5497 5503 5514 5528 5539 5540 5547 5552 5562 5567 5567 5566 5559 5551 5544 5543 5542 5541 5536 5526 5517 5509 5502 5496 5490 5486 5482 5480 5477 5474 5471 5467 5464 5461 5459 5458 5457 5456 5456 5455 5453 5452
5485 5491 5490 5494 5507 5520 5544 5532 5532 5538 5543 5555 5553 5553 5542 5536 5542 5545 5527 5519 5512 5504 5497 5489 5483 5478 5473 5468 5466 5463 5460 5456 5452 5448 5445 5443 5441 5439 5438 5437 5436 5435 5433 5433
5474 5475 5482 5488 5498 5515 5520 5509 5517 5524 5542 5535 5537 5540 5532 5536 5541 5528 5509 5500 5492 5485 5477 5471 5466 5460 5455 5450 5448 5446 5442 5437 5432 5428 5426 5424 5422 5420 5420 5419 5417 5415 5415 5414
5481 5481 5480 5481 5489 5508 5500 5497 5515 5523 5512 5510 5514 5517 5514 5508 5502 5498 5492 5482 5474 5466 5459 5453 5448 5441 5435 5432 5430 5428 5423 5417 5412 5409 5407 5405 5403 5401 5401 5399 5398 5396 5394 5394
5472 5481 5485 5487 5499 5494 5493 5497 5496 5494 5495 5493 5495 5494 5492 5486 5482 5478 5471 5463 5456 5449 5441 5434 5429 5422 5416 5411 5409 5407 5401 5396 5392 5389 5387 5386 5384 5383 5381 5379 5379 5377 5374 5372
5445 5448 5460 5464 5474 5471 5469 5470 5472 5475 5478 5477 5477 5476 5475 5471 5465 5458 5450 5442 5434 5426 5419 5414 5409 5404 5397 5391 5387 5383 5379 5375 5371 5369 5368 5367 5366 5366 5363 5360 5358 5356 5353 5351
5442 5438 5445 5450 5450 5448 5452 5454 5456 5455 5454 5454 5454 5454 5457 5452 5444 5438 5429 5420 5413 5405 5397 5392 5388 5384 5377 5371 5366 5361 5357 5353 5352 5350 5349 5347 5346 5344 5342 5341 5337 5334 5332 5327
5421 5432 5444 5454 5447 5447 5450 5446 5440 5439 5439 5438 5436 5431 5429 5430 5424 5416 5407 5398 5391 5383 5376 5371 5365 5360 5354 5349 5345 5340 5336 5332 5330 5331 5329 5326 5325 5323 5321 5321 5321 5318 5312 5309